TimeEST,TemperatureF,Dew PointF,Humidity,Sea Level PressureIn,VisibilityMPH,Wind Direction,Wind SpeedMPH,Gust SpeedMPH,PrecipitationIn,Events,Conditions,WindDirDegrees,DateUTC
12:53 AM,48.0,41.0,77,30.36,10.0,East,9.2,-,0.01,Rain,Light Rain,80,2013-12-08 05:53:00
1:53 AM,46.9,39.9,77,30.34,10.0,ENE,13.8,-,0.00,,Overcast,70,2013-12-08 06:53:00
2:49 AM,44.6,39.2,81,30.34,10.0,NE,11.5,-,0.00,Rain,Light Rain,50,2013-12-08 07:49:00
2:53 AM,44.1,39.0,82,30.35,10.0,NE,9.2,-,0.00,Rain,Light Rain,50,2013-12-08 07:53:00
3:17 AM,44.6,39.2,81,30.34,7.0,NE,11.5,-,0.00,,Overcast,40,2013-12-08 08:17:00
3:46 AM,42.8,39.2,87,30.34,4.0,NE,9.2,-,0.00,Rain,Light Rain,50,2013-12-08 08:46:00
3:51 AM,42.8,39.2,87,30.33,4.0,NE,11.5,-,0.00,Rain,Light Rain,40,2013-12-08 08:51:00
3:53 AM,43.0,39.9,89,30.34,4.0,NE,11.5,-,0.00,Rain,Light Rain,50,2013-12-08 08:53:00
4:08 AM,42.8,39.2,87,30.33,5.0,NE,9.2,-,0.00,Rain,Light Rain,40,2013-12-08 09:08:00
4:35 AM,42.8,39.2,87,30.33,6.0,NE,10.4,16.1,0.00,,Overcast,40,2013-12-08 09:35:00
4:53 AM,42.1,39.0,89,30.34,4.0,NE,11.5,-,0.00,,Overcast,40,2013-12-08 09:53:00
5:53 AM,42.1,39.0,89,30.35,5.0,NE,10.4,-,0.01,,Overcast,50,2013-12-08 10:53:00
6:53 AM,41.0,39.0,93,30.36,3.0,NE,10.4,-,0.01,Rain,Light Rain,50,2013-12-08 11:53:00
7:53 AM,41.0,37.9,89,30.38,8.0,NE,8.1,-,0.09,Rain,Light Rain,50,2013-12-08 12:53:00
8:53 AM,41.0,37.9,89,30.37,5.0,ENE,8.1,-,0.00,,Overcast,60,2013-12-08 13:53:00
9:20 AM,41.0,37.4,87,30.36,2.5,NE,10.4,-,0.00,Rain,Light Rain,50,2013-12-08 14:20:00
9:31 AM,39.2,37.4,93,30.35,3.0,NE,10.4,-,0.01,Rain,Light Rain,50,2013-12-08 14:31:00
9:53 AM,39.9,37.9,93,30.37,2.5,NE,11.5,-,0.01,Rain,Light Rain,40,2013-12-08 14:53:00
10:20 AM,39.2,37.4,93,30.37,1.5,NE,8.1,-,0.00,Rain,Light Rain,50,2013-12-08 15:20:00
10:36 AM,39.2,37.4,93,30.38,2.5,NE,6.9,-,0.00,Rain,Light Rain,50,2013-12-08 15:36:00
10:53 AM,39.9,37.0,89,30.39,2.0,NE,10.4,-,0.00,Rain,Light Rain,50,2013-12-08 15:53:00
11:10 AM,39.2,37.4,93,30.37,4.0,ENE,11.5,-,0.00,,Overcast,60,2013-12-08 16:10:00
11:53 AM,39.0,36.0,89,30.38,4.0,NE,9.2,-,0.00,,Overcast,50,2013-12-08 16:53:00
12:53 PM,39.0,36.0,89,30.34,9.0,NE,12.7,-,0.01,,Overcast,50,2013-12-08 17:53:00
1:07 PM,39.2,35.6,87,30.32,2.5,NE,11.5,-,0.01,Rain,Rain,50,2013-12-08 18:07:00
1:16 PM,39.2,35.6,87,30.32,7.0,NE,11.5,-,0.01,Rain,Light Rain,50,2013-12-08 18:16:00
1:23 PM,39.2,35.6,87,30.32,10.0,NE,9.2,-,0.01,Rain,Light Rain,50,2013-12-08 18:23:00
1:53 PM,39.0,36.0,89,30.30,4.0,ENE,11.5,-,0.01,Rain,Light Rain,70,2013-12-08 18:53:00
2:53 PM,37.9,35.1,89,30.31,3.0,ENE,9.2,-,0.00,Rain,Light Rain,60,2013-12-08 19:53:00
3:01 PM,37.4,35.6,93,30.29,1.8,NE,13.8,-,0.00,Rain,Light Rain,50,2013-12-08 20:01:00
3:09 PM,37.4,35.6,93,30.29,3.0,NE,10.4,-,0.00,Rain,Light Rain,50,2013-12-08 20:09:00
3:53 PM,37.9,35.1,89,30.31,10.0,ENE,11.5,-,0.00,,Overcast,60,2013-12-08 20:53:00
4:53 PM,37.9,35.1,89,30.30,2.5,ENE,10.4,-,0.00,Rain,Light Rain,60,2013-12-08 21:53:00
5:01 PM,37.4,35.6,93,30.29,5.0,NE,9.2,-,0.00,Rain,Light Rain,50,2013-12-08 22:01:00
5:53 PM,37.0,34.0,89,30.32,10.0,NE,9.2,-,0.00,,Overcast,50,2013-12-08 22:53:00
6:53 PM,37.0,34.0,89,30.31,4.0,ENE,6.9,-,0.00,Rain,Light Rain,60,2013-12-08 23:53:00
7:53 PM,37.0,34.0,89,30.32,3.0,NE,9.2,-,0.00,,Overcast,50,2013-12-09 00:53:00
8:53 PM,37.0,34.0,89,30.34,10.0,East,6.9,-,0.01,,Overcast,80,2013-12-09 01:53:00
9:04 PM,37.4,33.8,87,30.31,10.0,ENE,5.8,-,N/A,,Overcast,60,2013-12-09 02:04:00
9:53 PM,37.0,34.0,89,30.30,4.0,ENE,9.2,-,N/A,,Overcast,60,2013-12-09 02:53:00
10:53 PM,37.0,34.0,89,30.30,2.5,NE,5.8,-,N/A,,Overcast,50,2013-12-09 03:53:00
11:00 PM,37.4,33.8,87,30.27,3.0,ENE,5.8,-,N/A,,Overcast,70,2013-12-09 04:00:00
11:37 PM,35.6,33.8,93,30.25,7.0,ENE,8.1,-,0.00,Rain,Light Rain,60,2013-12-09 04:37:00
11:53 PM,36.0,34.0,93,30.27,5.0,ENE,8.1,-,0.00,,Overcast,60,2013-12-09 04:53:00